千帆星座-202(QIANFAN-202)

导读

QIANFAN-202(NORAD编号69801)是中国千帆低轨卫星互联网星座的组网卫星之一,由上海微小卫星工程中心牵头研制,运营方为上海垣信卫星科技有限公司。该卫星单星质量小于300kg,设计寿命7年,运行于低地轨道,核心功能是为全球用户提供低延迟、高带宽的卫星宽带互联网服务,重点覆盖偏远地区、海洋等地面通信基础设施薄弱区域。目前该卫星在轨运行稳定,是千帆星座一期组网的组成部分,助力缩小全球数字鸿沟,支撑跨区域通信、应急通信等场景需求。

基本信息
目录编号:
69801
目录名称:
QIANFAN-202
国际标识:
2026-153B
轨道中心:
EARTH
卫星名称:
千帆星座-202
卫星全名:
千帆星座-202(QIANFAN-202)
卫星状态:
在轨 (已飞行63 天)
发射日期:
2026-07-04 UTC
国别 :
中国 (CN)
星等 :
--
轨道信息
数据来源 国际轨道数据 AOE轨道数据
星历时间 2026-09-05T04:10:55+0800
11小时前
查看轨道信息
2026-08-30T04:00:00+0800
6天前
查看轨道信息
半长轴 7222.628km 7222.646km
偏心率 0.0009059 0.0010167
轨道倾角 88.998° 88.994°
近地点辐角 31.396° 50.442°
升交点赤经 353.179° 353.855°
平近点角 328.777° 340.334°
近地点 837.948km 837.165km
远地点 851.034km 851.853km
周期 101.813分钟 101.813分钟
每日圈数 14.143599 14.143547
详细信息
卫星平台:
202
覆盖范围:
全球
运营商:
上海垣信卫星科技有限公司
运营商所在国:
中国
使用方式:
暂无
卫星简介
千帆星座,也被称为“G60星链”计划,是中国版“星链”的重要组成部分,旨在打造一个由1.4万多颗低轨宽频多媒体卫星构成的庞大星座。千帆星座计划由上海垣信卫星科技有限公司负责实施,于2023年启动建设。该项目是我国第二个低轨卫星大星座,旨在通过构建庞大的卫星网络,为全球用户提供高质量的通信和宽带互联网服务。
2D轨道图
3D轨道图
轨道高度分析图
轨道倾角分析图
轨道综合分析图
查看轨道综合分析图
交会数据列表
事件ID 空间交会对象 最接近时刻(TCA) 交会距离 交会风险概率(CRP) 交会风险指数(CRI) 操作
CDM_260905-050506-115306-980123
2026-09-05T
05:05:25+0000
0.916 km
远距离
2.834113E-5 中风险 0.64
CDM_260904-113003-879506-980121
2026-09-04T
11:30:57+0000
1.043 km
极远距离
2.118404E-5 中风险 0.62
CDM_260906-103603-131306-980121
2026-09-06T
10:36:26+0000
1.698 km
极远距离
4.52E-6 低风险 0.48
CDM_260829-174103-086806-980122
2026-08-29T
17:41:34+0000
1.845 km
极远距离
3.127283E-6 低风险 0.45
CDM_260905-220703-762306-980121
CZ-4 DEB (37623)
2026-09-05T
22:07:06+0000
2.295 km
极远距离
1.891314E-6 低风险 0.41
CDM_260905-101403-145106-980121
2026-09-05T
10:14:12+0000
2.941 km
极远距离
9.592781E-7 极低风险 0.35